TimeAKST,TemperatureF,Dew PointF,Humidity,Sea Level PressureIn,VisibilityMPH,Wind Direction,Wind SpeedMPH,Gust SpeedMPH,PrecipitationIn,Events,Conditions,WindDirDegrees,DateUTC
12:53 AM,21.9,17.1,82,29.75,10.0,NNW,3.5,-,N/A,,Mostly Cloudy,330,2013-02-12 09:53:00
1:53 AM,23.0,16.0,74,29.77,10.0,Calm,Calm,-,N/A,,Overcast,0,2013-02-12 10:53:00
2:19 AM,23.0,17.6,80,29.75,4.0,North,6.9,-,0.00,Snow,Light Snow,10,2013-02-12 11:19:00
2:30 AM,24.8,17.6,74,29.75,5.0,Calm,Calm,-,0.00,Snow,Light Snow,0,2013-02-12 11:30:00
3:53 AM,24.1,16.0,71,29.76,10.0,North,3.5,-,N/A,,Overcast,360,2013-02-12 12:53:00
4:53 AM,21.9,15.1,75,29.76,10.0,North,6.9,-,N/A,,Overcast,350,2013-02-12 13:53:00
5:53 AM,21.0,16.0,81,29.76,10.0,North,6.9,-,N/A,,Overcast,350,2013-02-12 14:53:00
6:53 AM,21.0,17.1,85,29.77,10.0,North,4.6,-,0.00,,Mostly Cloudy,350,2013-02-12 15:53:00
7:17 AM,21.2,15.8,80,29.75,10.0,North,3.5,-,N/A,,Mostly Cloudy,360,2013-02-12 16:17:00
7:53 AM,21.0,17.1,85,29.76,10.0,Calm,Calm,-,N/A,,Mostly Cloudy,0,2013-02-12 16:53:00
8:53 AM,21.9,17.1,82,29.76,10.0,North,5.8,-,N/A,,Overcast,360,2013-02-12 17:53:00
9:53 AM,21.9,18.0,85,29.76,10.0,North,3.5,-,N/A,,Overcast,10,2013-02-12 18:53:00
10:53 AM,23.0,18.0,81,29.77,10.0,North,3.5,-,N/A,,Overcast,10,2013-02-12 19:53:00
11:53 AM,24.1,19.0,81,29.77,10.0,North,3.5,-,0.00,Snow,Light Snow,10,2013-02-12 20:53:00
12:53 PM,25.0,19.0,78,29.76,10.0,North,5.8,-,0.00,Snow,Light Snow,350,2013-02-12 21:53:00
1:53 PM,25.0,19.0,78,29.76,10.0,North,5.8,-,0.00,,Overcast,360,2013-02-12 22:53:00
2:53 PM,26.1,21.0,81,29.76,10.0,North,5.8,-,N/A,,Overcast,350,2013-02-12 23:53:00
3:53 PM,27.0,21.0,78,29.75,10.0,North,6.9,-,N/A,,Overcast,350,2013-02-13 00:53:00
4:53 PM,27.0,21.0,78,29.75,10.0,NNE,4.6,-,0.00,Snow,Light Snow,20,2013-02-13 01:53:00
5:53 PM,27.0,21.0,78,29.75,10.0,North,5.8,-,0.00,,Overcast,350,2013-02-13 02:53:00
6:53 PM,26.1,21.9,84,29.74,10.0,North,5.8,-,0.00,Snow,Light Snow,360,2013-02-13 03:53:00
7:53 PM,26.1,21.9,84,29.74,10.0,Calm,Calm,-,0.00,Snow,Light Snow,0,2013-02-13 04:53:00
8:09 PM,26.6,21.2,80,29.74,10.0,North,5.8,-,0.00,,Small Hail,350,2013-02-13 05:09:00
8:23 PM,26.6,21.2,80,29.74,10.0,North,8.1,-,0.00,Snow,Light Snow,350,2013-02-13 05:23:00
8:53 PM,25.0,21.0,85,29.75,10.0,North,9.2,-,0.01,Snow,Light Snow,350,2013-02-13 05:53:00
9:53 PM,25.0,21.0,85,29.75,10.0,NNW,6.9,-,0.00,,Overcast,340,2013-02-13 06:53:00
10:53 PM,25.0,19.9,81,29.75,10.0,NNE,5.8,-,N/A,,Overcast,30,2013-02-13 07:53:00
11:53 PM,24.1,19.9,84,29.75,10.0,North,6.9,-,N/A,,Overcast,10,2013-02-13 08:53:00